Location: Lango�lan
(48.1202°N, 3.2340°W)
Time: 00:10:27
(UTC+00:00)

H-2A R/B - Pass Details

Date: 23 October 2019
Orbit: 530 x 653 km, 98.3° (Epoch: 14 November)

Event Time Altitude Azimuth Distance (km) Brightness Sun altitude
Rises 04:47:11 0° 11° (N) 2,827 6.2 -20.1°
Reaches altitude 10° 04:49:20 10° 8° (N) 1,941 5.2 -19.7°
Maximum altitude 04:53:30 63° 288° (WNW) 688 2.5 -19.0°
Enters shadow 04:55:57 25° 214° (SW) 1,271 3.8 -18.6°
